Showing default

COSMOS 1690, 16138

Orbit data source: Space-Track

COSMOS 1690, 16138 is a payload satellite owned by GUKOS (CIS) in LEO that was launched on Wed, 09 Oct 1985 UTC via a TSIKLON-3 launch vehicle from the Plesetsk Missile And Space Complex (PKMTR). Payload-class satellites include a variety of spacecraft equipped with specific instruments for various scientific and technological missions. These include communications satellites like Starlink; space stations such as the ISS; scientific satellites like the Hubble; Earth observation satellites from companies like Planet Labs, Umbra, and HawkEye 360; GPS; miniature CubeSats for education and research; and military/defense satellites.

Loading next visibility...
Identifier
16138, 1985-094A
Orbit
LEO
Country
Flag of CISCIS
Related business
Manufacturer
NPO PM
Mission
Spacecraft
Bus & Motor
STRELA-3, Unknown motor
Mass
225 kg wet, 225 kg dry
Launch date (UTC)
1985-10-09 (40 years ago)
Launch vehicle
TSIKLON-3
Launch site
Plesetsk Missile And Space Complex (PKMTR)
Object type
Payload
Rocket body
Debris
Shape & HBR
Unknown
Radar Cross Section
Large (>1 m²)

Expand to show TLE details & history
Last TLE update: 16 hours ago

TLE from 16 hours ago
0 COSMOS 1690
1 16138U 85094A   25349.34190123  .00000034  00000-0  12310-3 0  9998
2 16138  82.6079 338.7461 0021802 357.3647 125.2930 12.66100639856727
Epoch: 2025-12-15T08:12Z
TLE epoch observation values (Epoch: 2025-12-15T08:12:20.266Z)
Latitude
56.49983°
Longitude
-59.8274°
Altitude
1,417.073 km
Speed
7.153 km/s
True Right ascension
09h 49m 59s
True Declination
56° 21' 17"
Sunlit
Object was in daylight at epoch
Visualization orbit readout
Latitude
Unknown
Longitude
Unknown
Altitude
Unknown
Speed
Unknown
Apparent Right ascension
Unknown
Apparent Declination
Unknown
Sunlit
N/A
Visualization observer readout
Local Sidereal Time
23:06:13
Azimuth
Unknown
Elevation
Unknown
Doppler factor
Unknown
Orbital elements
Apogee altitude
1,412.126 km
Perigee altitude
1,378.232 km
Semi-major axis
7,773.316 km
Eccentricity
0.00218
Inclination
82.6079°
RAAN
338.7461°
Arg. of periapsis
357.3647°
True anomaly
125.49659°
Mean anomaly
125.293°
Eccentric anomaly
125.39483°
Mean motion
3.1669 °/min
Orbital period
113.68 mins
BSTAR
0.0001231
Loading maneuver chart data...
Computing Atmospheric mass density...
Loading historical data...
Loading historical data...
Loading historical data...
Loading historical data...
Loading historical data...
Loading historical data...
Loading historical data...

Documentation

Showing up to 5 results
|